Location: Newark
(55.7083°N, 13.1992°E)
Time: 21:01:58
(UTC+00:00)

N. Korean satellite - Pass Details

Date: 30 January 2020
Orbit: 456 x 505 km, 97.2° (Epoch: 26 February)

Event Time Altitude Azimuth Distance (km) Brightness Sun altitude
Rises 17:22:59 0° 221° (SW) 2,474 11.0 -14.9°
Reaches altitude 10° 17:26:38 10° 262° (W) 1,615 10.6 -15.4°
Maximum altitude 17:27:23 11° 275° (W) 1,585 10.4 -15.5°
Drops below altitude 10° 17:28:09 10° 288° (WNW) 1,622 10.2 -15.6°
Sets 17:31:53 0° 329° (NNW) 2,519 10.5 -16.1°
